This is the latest recevied weather packets stored in our database for station/object N3FAA. If no packets are shown the sender has not sent any weather packets the latest 10 day(s).
| Time | Temp. | Humidity | Pressure | Rain* | Wind** | Luminosity | Snow |
|---|---|---|---|---|---|---|---|
| 1777423414 | 21.11° C | 35% | 1012.4 hPa | 0 mm | - | 269 W/m² | - |
| 1777423113 | 21.67° C | 34% | 1012.2 hPa | 0 mm | - | 290 W/m² | - |
| 1777422809 | 22.22° C | 34% | 1012.1 hPa | 0 mm | - | 304 W/m² | - |
| 1777422505 | 22.22° C | 33% | 1012.2 hPa | 0 mm | - | 318 W/m² | - |
| 1777422201 | 21.67° C | 30% | 1012 hPa | 0 mm | - | 328 W/m² | - |
| 1777421900 | 22.78° C | 29% | 1011.8 hPa | 0 mm | - | 367 W/m² | - |
| 1777421596 | 22.78° C | 29% | 1012 hPa | 0 mm | - | 388 W/m² | - |
| 1777421291 | 22.78° C | 28% | 1012 hPa | 0 mm | - | 409 W/m² | - |
| 1777420988 | 22.78° C | 29% | 1011.7 hPa | 0 mm | - | 412 W/m² | - |
| 1777420684 | 22.78° C | 28% | 1012.1 hPa | 0 mm | - | 413 W/m² | - |
| 1777420380 | 23.33° C | 27% | 1012.1 hPa | 0 mm | - | 412 W/m² | - |
| 1777420076 | 23.33° C | 27% | 1011.9 hPa | 0 mm | - | 434 W/m² | - |
| 1777419773 | 23.33° C | 26% | 1011.9 hPa | 0 mm | - | 460 W/m² | - |
| 1777419470 | 23.89° C | 25% | 1012 hPa | 0 mm | - | 494 W/m² | - |
| 1777419169 | 23.89° C | 23% | 1011.9 hPa | 0 mm | - | 511 W/m² | - |
| 1777418865 | 23.89° C | 23% | 1011.9 hPa | 0 mm | - | 538 W/m² | - |
| 1777418561 | 22.78° C | 23% | 1012.3 hPa | 0 mm | - | 566 W/m² | - |
| 1777418258 | 24.44° C | 22% | 1011.9 hPa | 0 mm | - | 589 W/m² | - |
| 1777417953 | 23.33° C | 23% | 1012 hPa | 0 mm | - | 606 W/m² | - |
| 1777417649 | 23.33° C | 23% | 1012.2 hPa | 0 mm | - | 622 W/m² | - |
| 1777417344 | 22.78° C | 23% | 1012 hPa | 0 mm | - | 617 W/m² | - |
| 1777417042 | 23.89° C | 23% | 1012.2 hPa | 0 mm | - | 624 W/m² | - |
| 1777416737 | 24.44° C | 23% | 1012.4 hPa | 0 mm | - | 651 W/m² | - |
| 1777416432 | 22.78° C | 23% | 1012.4 hPa | 0 mm | - | 632 W/m² | - |
| 1777416128 | 22.78° C | 24% | 1012.6 hPa | 0 mm | - | 557 W/m² | - |
* Rain latest hour (hover to see other rain measurements)
** Current wind speed in m/s (hover to see current wind gust speed)